Location: Unspecified
(0.0000°N, 0.0000°E)
Time: 10:25:25
(UTC+00:00)

Envisat - Pass Details

Date: 27 January 2021
Orbit: 764 x 766 km, 98.1° (Epoch: 25 February)

Event Time Altitude Azimuth Distance (km) Brightness Sun altitude
Rises 05:11:59 0° 16° (NNE) 3,213 6.2 -14.4°
Reaches altitude 10° 05:14:17 10° 18° (NNE) 2,289 5.5 -13.9°
Maximum altitude 05:19:18 72° 102° (ESE) 802 3.3 -12.7°
Drops below altitude 10° 05:24:21 10° 186° (S) 2,299 5.6 -11.5°
Sets 05:26:40 0° 188° (S) 3,227 6.4 -10.9°
